Location: Mascot Post Office (historical)
(40.2645°N, 99.5462°W)
Time: 01:56:50
(UTC+00:00)

Cosmos 1850 Rocket - Pass Details

Date: 14 July 2020
Orbit: 755 x 785 km, 74.0° (Epoch: 14 August)

Event Time Altitude Azimuth Distance (km) Brightness Sun altitude
Exits shadow 09:27:54 26° 194° (SSW) 1,489 5.0 -17.4°
Maximum altitude 09:30:57 84° 108° (ESE) 794 4.0 -17.0°
Drops below altitude 10° 09:36:18 10° 20° (NNE) 2,349 7.6 -16.3°
Sets 09:38:42 0° 20° (NNE) 3,279 8.6 -16.0°
